Regional Weather Roundup
Issued by NWS Wakefield, VA

Home | Current Version | Previous Version | Graphics & Text | Print | Product List | Glossary On
Versions: 1 2 3 4 5 6 7 8 9 10 11 12 13 14 15 16 17 18 19 20 21 22 23 24 25 26 27
000
ASUS41 KAKQ 310710
RWRAKQ

REGIONAL WEATHER ROUNDUP
NATIONAL WEATHER SERVICE WAKEFIELD VA
300 AM EDT FRI OCT 31 2014

Note: "fair" indicates few or no clouds below 12,000 feet with no
significant weather and/or obstructions to visibility. * = Denotes
station may not report precipitation (e.g., rain,snow,etc.),
thunder or fog.

VAZ042-051-052>054-056-310800-
NORTHERN VIRGINIA

CITY           SKY/WX    TMP DP  RH WIND       PRES   REMARKS
WASH NATIONAL  PTCLDY    48  37  65 CALM      30.03F
DULLES         CLOUDY    37  35  92 CALM      30.03S
FORT BELVOIR   CLEAR     38  36  95 CALM      30.03F
QUANTICO       CLEAR     41  36  82 NW8       30.03F
FREDERICKSBRG* CLEAR     38  38 100 CALM      30.02F
STAFFORD*      CLEAR     33  33 100 CALM      30.06F
WARRENTON      CLOUDY    34  34 100 CALM      30.02F
CULPEPER*      CLOUDY    36  34  93 CALM      30.03F
MANASSAS*      PTCLDY    36  36 100 CALM      30.03F
LEESBURG*      PTCLDY    37  37 100 CALM      30.03S
WINCHESTER     MOCLDY    37  32  81 CALM      30.02S
FRONT ROYAL*   CLOUDY    39  36  87 S7        30.02S
LURAY*         CLOUDY    36  36 100 CALM      30.04S
$$

VAZ048-049-060>072-079>083-310800-
CENTRAL AND SOUTH CENTRAL VIRGINIA...AND NORTH CENTRAL NORTH CAROLINA

CITY           SKY/WX    TMP DP  RH WIND       PRES   REMARKS
RICHMOND       CLEAR     43  36  76 N5        30.00F
CHESTERFIELD*  SUNNY     37  27  65 NW5       30.01F
PETERSBURG*    CLEAR     35  34  98 CALM      30.01F
HANOVER        CLEAR     39  37  92 CALM      30.03S
TAPPAHANNOCK*  CLEAR     38  35  87 CALM      30.01F
CHARLOTTSVILLE CLOUDY    40  36  86 CALM      30.02F
ORANGE*        CLOUDY    37  36  93 CALM      30.04F
LOUISA*        PTCLDY    41  36  81 N6        30.00F
FARMVILLE*     CLEAR     43  36  75 CALM      30.00F
CREWE*         SUNNY     39  37  93 NW3       30.01S
FORT PICKETT*  SUNNY     42  37  80 N6        30.00F
LUNENBURG*     SUNNY     41  37  84 N6        30.00S
SOUTH HILL*    CLEAR     45  39  81 N3        30.04F
LAWRENCEVILLE* SUNNY     43  38  84 N3        29.99S
ROANOKE RAPIDS SUNNY     41  39  93 N5        29.98F
RALEIGH        PTCLDY    45  41  86 NE6       29.98F
$$

VAZ088>098-310800-
SOUTHEAST VIRGINIA

CITY           SKY/WX    TMP DP  RH WIND       PRES   REMARKS
NORFOLK        CLEAR     56  45  66 NE10      29.97F
VIRGINIA BEACH PTCLDY    48  39  71 NW5       29.96F
NORFOLK NAVAL  CLEAR     57  43  59 NE12      29.99F
WEST POINT*    CLEAR     40  38  91 CALM      30.01F
NEWPORT NEWS   CLEAR     48  43  82 N5        29.98F
LANGLEY AFB    CLEAR     51  43  72 NE8       29.98F
FORT EUSTIS    CLEAR     48  48  99 N5        29.97F
WILLIAMSBURG*  CLEAR     46  45  93 N3        30.00S
HR EXEC AP*    SUNNY     36  34  93 CALM      30.00S
FRANKLIN*      CLEAR     43 N/A N/A CALM      29.98F
WAKEFIELD      CLEAR     42  39  89 CALM      29.99F
$$

VAZ020-022-025-037-045-310800-
WEST CENTRAL AND SOUTHWEST VIRGINIA

CITY           SKY/WX    TMP DP  RH WIND       PRES   REMARKS
STAUNTON*      CLOUDY    34  31  90 CALM      30.05F
HOT SPRINGS VA CLOUDY    35  29  80 E5        29.95F
LYNCHBURG      CLEAR     40  35  83 N5        30.03F
DANVILLE       CLEAR     42  35  76 NE5       30.01F
SOUTH BOSTON*  NOT AVBL
MARTINSVILLE   CLOUDY    38  38 100 CALM      30.04F
ROANOKE        CLEAR     38  33  82 CALM      30.04F
BLACKSBURG     CLEAR     36  36 100 CALM      30.02S
DUBLIN*        PTCLDY    36  34  93 CALM      30.02S
MARION*        CLEAR     34  33  94 CALM      30.02S
HILLSVILLE*    PTCLDY    35  33  90 E3        29.99F
RICHLANDS*     SUNNY     38  35  86 CALM      29.99S
WISE*          CLEAR     36  34  93 CALM      30.00F
ABINGDON*      CLEAR     39  36  87 CALM      29.99S
$$

MDZ021>025-VAZ099-100-310800-
SOUTHERN MARYLAND AND THE DELMARVA PENINSULA

CITY           SKY/WX    TMP DP  RH WIND       PRES   REMARKS
PATUXENT RIVER CLEAR     44  38  79 VRB3      30.00F
BAY BRIDGE APT   N/A     46  37  71 E3        30.02S
LEONARDTOWN    CLEAR     37  36  93 CALM      30.01F
DOVER          PTCLDY    43  38  84 NW3       29.99F
GEORGETOWN     CLEAR     41  37  86 CALM      30.01F
EASTON         CLEAR     44  41  89 CALM      30.04F
CAMBRIDGE      CLEAR     48  39  71 NE5       30.00F
SALISBURY      CLEAR     46  38  73 NE3       30.00F
OCEAN CITY     CLEAR     42  39  89 N5        29.99F
WALLOPS ISLAND CLEAR     45  39  79 N7        29.99F
ACCOMACK*      CLEAR     39  37  93 N5        29.99S
$$

NCZ012>017-030>032-310800-
EASTERN NORTH CAROLINA

CITY           SKY/WX    TMP DP  RH WIND       PRES   REMARKS
ELIZABETH CITY CLEAR     54  45  71 N8        29.96F
AHOSKIE*       NOT AVBL
EDENTON*       CLEAR     47  43  86 N3        29.96F
CURRITUCK*     CLEAR     47  44  88 CALM      29.97S
KILL DEVIL HLS PTCLDY    59  48  66 N9        29.93F
MANTEO         CLOUDY    59  49  69 N10G17    29.94F
CAPE HATTERAS  CLOUDY    60  50  69 NE10G23   29.90F
TARBORO*       SUNNY     42  41  97 CALM      29.98F FOG
GOLDSBORO      CLEAR     49  48  98 N5        29.94F
WASHINGTON     CLEAR     47  44  88 N5        29.95F
GREENVILLE     CLEAR     46  45  93 N3        29.98S
NEW BERN       CLEAR     53  49  86 NE9       29.94F
WILMINGTON     PTCLDY    52  50  93 NE9       29.92S
$$

VAZ048-310800-
ELSEWHERE

CITY           SKY/WX    TMP DP  RH WIND       PRES   REMARKS
HARRISBURG PA  CLOUDY    47  38  71 CALM      30.02S
BALTIMORE      CLOUDY    46  40  79 CALM      30.02S
ANNAPOLIS      CLOUDY    50  40  68 CALM      30.01F
ANDREWS AFB    CLEAR     39  37  93 CALM      30.01F
WILMINGTON DE  MOCLDY    41  37  86 N3        30.03F
PHILADELPHIA   CLEAR     42  34  73 N3        30.03F
WILDWOOD NJ*   CLEAR     41  32  70 N5        30.01F
ATLANTIC CITY  CLEAR     38  34  85 CALM      30.01F
HENDERSON NC   CLEAR     42  39  86 N3        29.99F
GREENSBORO     PTCLDY    44  39  82 N5        29.99S
ROCKY MOUNT    CLEAR     44  43  96 N6        29.98S
FAYETTEVILLE   CLEAR     47  45  93 N5        29.94F
CHARLOTTE      CLEAR     42  36  79 N6        29.96F
$$

VAZ100-310800-
MARINE

STATION/POSITION TIME  TEMP    WIND        PRES    WAVE   SWELL
                       AIR SEA DIR/SP/G            HT/PER HT/PER
                 (UTC) (F)     (DEG/KT/KT) (MB)    (FT/S) (FT/S)
44066 TX TWR #4  0700   56 64  350/  8/ 10 1014.8F   2/ 4   2/ 4
CAPE MAY NJ      0600   46 64   50/  3/  6 1015.6F
LEWES DE         0600   53 59   40/ 13/ 15 1015.8F
15NM E FENWICK I 0700   56 64              1014.9F   2/ 4
OCEAN-CITY-INLET 0600   51 62  340/  6/  7 1015.2F
WACHAPREAGUE VA  0600   48 63  360/  4/  6 1015.4F
THOMAS POINT MD  0700   51 61   80/ 10/ 11 1017.3F
GOOSES REEF MD   0700   54      70/ 10/ 12 1016.3F
COVE POINT MD    0600   53      50/ 10/ 12 1015.7F
SOLOMONS ISLAND  0600      62                N/A
BISHOPS HEAD MD  0600   52 60   30/ 10/ 14 1015.3F
PINEY POINT MD   0600           30/  4/  5   N/A
POTOMAC MD       0700   55      60/ 10/ 14 1015.0S
CAMBRIDGE MD     0600   50 60   50/  8/ 11 1015.9F
LEWISETTA VA     0600   54 61   20/  5/  7 1015.5F
RAPPAHANNOCK LGT 0600           30/ 12/ 13 1015.8F
STINGRAY PT      0700   56      60/ 12/ 16 1015.9F
YORK RVR RNG VA  0600   57      50/ 13/ 16 1014.8F
YORKTOWN VA      0600   52 63   20/  8/  9 1015.1F
JAMESTOWN VA     0700   47      30/  6/  8   N/A
DOMINION TERM VA 0600   52      20/  4/  5 1015.2F
KIPTOPEKE VA     0600      67   40/  5/  7   N/A
CHES BAY BRIDGE  0600   56 64   10/ 12/ 14 1014.4F
CHESAPEAKE LGHT  0600   59      40/ 14/ 16 1015.5F
WILLOUBY STN VA  0600   57      40/ 13/ 14 1013.8F
S CRANEY ISL VA  0600           10/  9/ 11 1014.7F
CAPE HENRY BUOY  0700      65                N/A     2/ 5
1ST LANDING BUOY 0700   57      20/ 14/ 16 1014.6F
CAPE CHARLES BUO 0700      65                N/A     2/ 5   2/ 6
64NM E OF VA BCH 0700   60 66   40/ 12/ 17 1013.7F   2/ 5   2/ 6
DUCK PIER NC     0600   61 66   30/ 13/ 16 1013.4F
44100 DUCK FRF   0700      67                N/A     3/ 4
OREGON INLET NC  0600   60 67   20/ 11/ 16 1013.6F
HATTERAS NC      0600   62 67   20/ 19/ 23 1013.0F
DIAMOND SHLS NC  0700   64      10/ 21/ 27 1011.3F   5/ 6   2/13
CAPE LOOKOUT NC  0700   61      20/ 15/ 18 1012.3F
$$



USA.gov is the U.S. government's official web portal to all federal, state and local government web resources and services.